Weather History for Poteau, OK

Change the Weather History Date:

Monday, January 21, 2013

  Actual Average (KFSM) Record (KFSM)
Temperature  
Mean Temperature 42 °F 40 °F  
Max Temperature 51 °F 50 °F 76 °F (1999)
Min Temperature 28 °F 29 °F -1 °F (1930)
Degree Days  
Heating Degree Days 24 25  
Month to date heating degree days 545  
Since 1 July heating degree days 1844  
Moisture  
Dew Point 25 °F    
Average Humidity 53    
Maximum Humidity 86    
Minimum Humidity 33    
Precipitation  
Precipitation 0.00 in 0.09 in 2.79 in (1904)
Month to date precipitation 1.87  
Year to date precipitation 1.87  
Sea Level Pressure  
Sea Level Pressure 30.30 in    
Wind  
Wind Speed 7 mph (North)    
Max Wind Speed 13 mph    
Max Gust Speed 18 mph    
Visibility 10 miles    
Events      
T = Trace of Precipitation, MM = Missing Value Source: NWS Daily Summary

Daily Weather History Graph

Daily Weather History Graph

Search for Another Location

Airport:

Trip Planner

Search our weather history database for the weather conditions in past years. The results will help you decide how hot, cold, wet, or windy it might be!

Date:

Astronomy

Jan. 21, 2013 Rise Set
Actual Time 7:23 AM CST 5:36 PM CST
Civil Twilight 6:56 AM CST 6:03 PM CST
Nautical Twilight 6:25 AM CST 6:34 PM CST
Astronomical Twilight 5:55 AM CST 7:04 PM CST
Moon 1:17 PM CST (1/21) 2:52 AM CST (1/21)
Length of Visible Light 11h 06m
Length of Day
10h 12m
Waxing Gibbous, 75% of the Moon is Illuminated
Jan 21
Waxing Gibbous
Jan 26
Full
Feb 3
Last Quarter
Feb 10
New
Feb 17
First Quarter

Hourly Weather History & Observations

Time (CST) Temp. Windchill Dew Point Humidity Pressure Visibility Wind Dir Wind Speed Gust Speed Precip Events Conditions
12:15 AM 48.2 °F - 37.4 °F 66% 30.18 in 10.0 mi North 3.5 mph - N/A   Mostly Cloudy
12:35 AM 51.8 °F - 39.2 °F 62% 30.19 in 10.0 mi North 6.9 mph - N/A   Overcast
12:55 AM 50.0 °F - 37.4 °F 62% 30.20 in 10.0 mi North 6.9 mph - N/A   Mostly Cloudy
1:15 AM 46.4 °F 41.1 °F 35.6 °F 66% 30.21 in 10.0 mi North 11.5 mph - N/A   Scattered Clouds
1:35 AM 46.4 °F 40.7 °F 33.8 °F 62% 30.22 in 10.0 mi North 12.7 mph 18.4 mph N/A   Scattered Clouds
1:55 AM 44.6 °F 39.7 °F 32.0 °F 61% 30.23 in 10.0 mi North 9.2 mph 17.3 mph N/A   Overcast
2:15 AM 44.6 °F 39.7 °F 30.2 °F 57% 30.25 in 10.0 mi North 9.2 mph 18.4 mph N/A   Overcast
2:35 AM 42.8 °F 38.6 °F 28.4 °F 57% 30.26 in 10.0 mi North 6.9 mph - N/A   Scattered Clouds
2:55 AM 42.8 °F 37.0 °F 28.4 °F 57% 30.26 in 10.0 mi North 10.4 mph - N/A   Scattered Clouds
3:15 AM 42.8 °F 36.6 °F 28.4 °F 57% 30.26 in 10.0 mi North 11.5 mph - N/A   Mostly Cloudy
3:35 AM 41.0 °F 34.3 °F 26.6 °F 57% 30.26 in 10.0 mi North 11.5 mph - N/A   Scattered Clouds
3:55 AM 41.0 °F 35.2 °F 28.4 °F 61% 30.27 in 10.0 mi North 9.2 mph - N/A   Scattered Clouds
4:15 AM 41.0 °F 38.0 °F 26.6 °F 57% 30.28 in 10.0 mi NE 4.6 mph - N/A   Clear
4:55 AM 39.2 °F 34.2 °F 26.6 °F 61% 30.28 in 10.0 mi NNE 6.9 mph - N/A   Mostly Cloudy
5:15 AM 37.4 °F 33.8 °F 26.6 °F 65% 30.29 in 10.0 mi NNE 4.6 mph - N/A   Overcast
5:35 AM 37.4 °F 29.3 °F 26.6 °F 65% 30.30 in 10.0 mi North 12.7 mph - N/A   Overcast
5:55 AM 37.4 °F 30.8 °F 26.6 °F 65% 30.31 in 10.0 mi North 9.2 mph - N/A   Overcast
6:15 AM 37.4 °F 29.3 °F 26.6 °F 65% 30.31 in 10.0 mi North 12.7 mph 17.3 mph N/A   Overcast
6:35 AM 35.6 °F 30.7 °F 24.8 °F 65% 30.32 in 10.0 mi North 5.8 mph - N/A   Mostly Cloudy
6:55 AM 35.6 °F 29.2 °F 26.6 °F 70% 30.33 in 10.0 mi North 8.1 mph - N/A   Scattered Clouds
7:15 AM 35.6 °F 28.0 °F 26.6 °F 70% 30.33 in 10.0 mi North 10.4 mph - N/A   Scattered Clouds
7:35 AM 35.6 °F 29.9 °F 24.8 °F 65% 30.34 in 10.0 mi North 6.9 mph - N/A   Clear
7:55 AM 35.6 °F 29.9 °F 24.8 °F 65% 30.35 in 10.0 mi NNE 6.9 mph - N/A   Clear
8:15 AM 35.6 °F 29.2 °F 24.8 °F 65% 30.36 in 10.0 mi North 8.1 mph - N/A   Clear
8:35 AM 35.6 °F 32.8 °F 23.0 °F 60% 30.36 in 10.0 mi NNE 3.5 mph - N/A   Clear
8:55 AM 37.4 °F 32.8 °F 24.8 °F 60% 30.36 in 10.0 mi North 5.8 mph - N/A   Clear
9:15 AM 37.4 °F 34.9 °F 24.8 °F 60% 30.37 in 10.0 mi NNE 3.5 mph - N/A   Clear
9:35 AM 37.4 °F 33.8 °F 23.0 °F 56% 30.37 in 10.0 mi NNE 4.6 mph - N/A   Clear
9:55 AM 37.4 °F 32.8 °F 23.0 °F 56% 30.37 in 10.0 mi NE 5.8 mph - N/A   Clear
10:15 AM 41.0 °F 37.1 °F 24.8 °F 53% 30.37 in 10.0 mi North 5.8 mph - N/A   Clear
10:35 AM 42.8 °F 38.6 °F 24.8 °F 49% 30.37 in 10.0 mi North 6.9 mph - N/A   Clear
10:55 AM 42.8 °F 38.6 °F 24.8 °F 49% 30.36 in 10.0 mi North 6.9 mph - N/A   Clear
11:15 AM 44.6 °F 39.7 °F 24.8 °F 46% 30.36 in 10.0 mi NNE 9.2 mph - N/A   Clear
11:35 AM 44.6 °F 40.7 °F 23.0 °F 43% 30.35 in 10.0 mi NNE 6.9 mph - N/A   Clear
11:55 AM 44.6 °F 40.2 °F 23.0 °F 43% 30.34 in 10.0 mi North 8.1 mph - N/A   Clear
12:15 PM 48.2 °F - 24.8 °F 40% 30.33 in 10.0 mi NNE 6.9 mph - N/A   Clear
12:35 PM 48.2 °F - 23.0 °F 37% 30.32 in 10.0 mi NNE 8.1 mph - N/A   Clear
12:55 PM 48.2 °F - 23.0 °F 37% 30.31 in 10.0 mi NNE 4.6 mph - N/A   Clear
1:15 PM 51.8 °F - 26.6 °F 38% 30.31 in 10.0 mi North 5.8 mph - N/A   Clear
1:35 PM 51.8 °F - 24.8 °F 35% 30.30 in 10.0 mi North 9.2 mph - N/A   Clear
1:55 PM 51.8 °F - 24.8 °F 35% 30.29 in 10.0 mi NNW 5.8 mph - N/A   Clear
2:15 PM 51.8 °F - 23.0 °F 33% 30.29 in 10.0 mi North 8.1 mph - N/A   Clear
2:35 PM 51.8 °F - 23.0 °F 33% 30.29 in 10.0 mi NNE 4.6 mph - N/A   Clear
2:55 PM 51.8 °F - 23.0 °F 33% 30.28 in 10.0 mi North 8.1 mph - N/A   Clear
3:15 PM 51.8 °F - 23.0 °F 33% 30.28 in 10.0 mi NW 6.9 mph - N/A   Clear
3:35 PM 51.8 °F - 23.0 °F 33% 30.28 in 10.0 mi North 6.9 mph - N/A   Clear
3:55 PM 51.8 °F - 23.0 °F 33% 30.28 in 10.0 mi NNW 6.9 mph - N/A   Clear
4:15 PM 51.8 °F - 23.0 °F 33% 30.27 in 10.0 mi North 4.6 mph - N/A   Clear
4:35 PM 51.8 °F - 23.0 °F 33% 30.27 in 10.0 mi North 4.6 mph - N/A   Clear
4:55 PM 51.8 °F - 24.8 °F 35% 30.27 in 10.0 mi North 4.6 mph - N/A   Clear
5:15 PM 48.2 °F - 23.0 °F 37% 30.27 in 10.0 mi North 5.8 mph - N/A   Clear
5:35 PM 44.6 °F 43.1 °F 23.0 °F 43% 30.27 in 10.0 mi North 3.5 mph - N/A   Clear
5:55 PM 44.6 °F - 21.2 °F 39% 30.27 in 10.0 mi Calm Calm - N/A   Clear
6:15 PM 42.8 °F 39.3 °F 23.0 °F 46% 30.27 in 10.0 mi North 5.8 mph - N/A   Clear
6:35 PM 42.8 °F 41.1 °F 21.2 °F 42% 30.27 in 10.0 mi North 3.5 mph - N/A   Clear
6:55 PM 42.8 °F 39.3 °F 21.2 °F 42% 30.27 in 10.0 mi North 5.8 mph - N/A   Clear
7:15 PM 41.0 °F 36.4 °F 21.2 °F 45% 30.28 in 10.0 mi North 6.9 mph - N/A   Clear
7:35 PM 41.0 °F 36.4 °F 21.2 °F 45% 30.28 in 10.0 mi North 6.9 mph - N/A   Clear
7:55 PM 41.0 °F 36.4 °F 21.2 °F 45% 30.29 in 10.0 mi North 6.9 mph - N/A   Clear
8:15 PM 41.0 °F 39.0 °F 21.2 °F 45% 30.29 in 10.0 mi North 3.5 mph - N/A   Clear
8:35 PM 39.2 °F - 19.4 °F 45% 30.30 in 10.0 mi Calm Calm - N/A   Clear
8:55 PM 41.0 °F - 21.2 °F 45% 30.30 in 10.0 mi Calm Calm - N/A   Clear
9:15 PM 37.4 °F - 23.0 °F 56% 30.30 in 10.0 mi Calm Calm - N/A   Clear
9:35 PM 35.6 °F - 23.0 °F 60% 30.30 in 10.0 mi Calm Calm - N/A   Clear
9:55 PM 35.6 °F - 23.0 °F 60% 30.30 in 10.0 mi Calm Calm - N/A   Clear
10:15 PM 33.8 °F - 23.0 °F 65% 30.31 in 10.0 mi Calm Calm - N/A   Clear
10:35 PM 33.8 °F - 24.8 °F 70% 30.31 in 10.0 mi Calm Calm - N/A   Clear
10:55 PM 32.0 °F - 26.6 °F 80% 30.31 in 10.0 mi Calm Calm - N/A   Clear
11:15 PM 32.0 °F - 26.6 °F 80% 30.32 in 10.0 mi Calm Calm - N/A   Clear
11:35 PM 32.0 °F - 26.6 °F 80% 30.32 in 10.0 mi Calm Calm - N/A   Clear
11:55 PM 28.4 °F - 24.8 °F 86% 30.32 in 10.0 mi Calm Calm - N/A   Clear